[[{"header":{"parameterUnit":"m.s-1","parameterCategory":1,"la1":30.2991,"la2":30.254,"lo1":-89.0895,"lo2":-89.0444,"dy":0.0017,"dx":0.0017,"nx":28,"ny":28,"refTime":"2024-07-21T09:00:00:Z","depth":0,"parameterNumber":2,"parameterNumberName":"U-component_of_WINDS"},"data":[0,0,0,0,0,0,0,0,0,0,0,0,0,0,0,0,0,0,0,0,0,0,0,0,0,0,0,0,0,0,0,0,0,0,0,0,0,0,0,0,0,0,0,0,0,0,0,0,0,0,0,0,0,0,0,0,0,0,1.8413,1.8414,0,1.8489,1.849,1.8491,1.852,1.852,1.8519,1.8519,1.8598,1.86,1.8602,0,0,0,0,0,0,0,0,0,0,0,0,0,1.8292,1.8294,1.8413,1.8414,1.8415,1.8489,1.849,1.8491,1.852,1.852,1.8519,1.8519,1.8597,1.86,1.8602,0,0,0,0,0,0,0,0,0,0,0,0,0,1.8354,1.8295,1.8413,1.8438,1.8441,1.8489,1.849,1.8491,1.852,1.852,1.8519,1.8519,1.8596,1.8599,1.8603,1.8631,0,0,1.8613,1.8615,0,0,0,0,0,0,0,0,1.835,1.8358,1.8433,1.8436,1.844,1.8495,1.8476,1.8538,1.852,1.849,1.8519,1.8519,1.8564,1.857,1.8585,1.8635,1.8638,1.8614,1.8616,1.8617,1.8618,0,0,0,0,0,0,0,1.8346,1.8355,1.8443,1.8434,1.8438,1.8446,1.8454,1.8488,1.8528,1.8493,1.8495,1.8503,1.8565,1.8581,1.8587,1.8639,1.8614,1.8617,1.8619,1.862,1.8715,1.8716,0,0,0,0,0,0,1.8338,1.8351,1.8441,1.8445,1.8393,1.8448,1.8457,1.8477,1.8528,1.8535,1.8504,1.8505,1.8576,1.8583,1.859,1.8626,1.8617,1.8621,1.8623,1.8715,1.8715,1.8716,0,0,0,0,0,0,1.8335,1.8345,1.8437,1.8399,1.8411,1.845,1.8473,1.8479,1.8495,1.8536,1.8543,1.8513,1.8576,1.8585,1.862,1.8629,1.8622,1.8625,1.8714,1.8715,1.8716,1.8698,0,0,0,0,0,0,1.8331,1.8344,1.8355,1.8399,1.8413,1.8467,1.8473,1.8481,1.8501,1.8503,1.8546,1.8553,1.8576,1.8615,1.8624,1.8633,1.8628,1.8714,1.8715,1.8715,1.8698,1.8698,1.8698,0,0,0,0,0,1.8327,1.8347,1.8356,1.8366,1.8428,1.8467,1.8475,1.8501,1.8501,1.8513,1.8539,1.8552,1.8626,1.8618,1.8629,1.8639,1.8713,1.8714,1.8715,1.8698,1.8698,1.8698,0,0,0,0,0,0,1.8304,1.8354,1.8363,1.8399,1.8428,1.8472,1.8487,1.85,1.8531,1.8531,1.8562,1.8572,1.8604,1.8626,1.8616,1.8669,1.8671,1.8674,1.8654,1.8654,1.8654,1.8648,1.8631,0,0,0,0,0,1.8303,1.833,1.8372,1.8399,1.8414,1.8448,1.8466,1.8483,1.8515,1.8528,1.8557,1.8588,1.8618,1.8637,1.8668,1.8701,1.8711,1.8713,1.8713,1.8713,1.8715,1.8734,1.8736,1.8719,1.8719,1.8719,0,0,1.8301,1.8331,1.8347,1.8395,1.8421,1.8448,1.8458,1.8487,1.8508,1.8533,1.8568,1.859,1.8626,1.866,1.8677,1.8679,1.8722,1.8714,1.8714,1.8716,1.8735,1.8737,1.8738,1.872,1.872,1.872,0,0,1.8312,1.8338,1.8363,1.8388,1.8426,1.8448,1.8454,1.8496,1.8511,1.8547,1.8565,1.8591,1.8642,1.8667,1.8687,1.8706,1.8719,1.8715,1.8715,1.8733,1.8734,1.8736,1.8742,1.8744,1.8718,1.8717,1.8717,0,1.8305,1.8347,1.8374,1.8402,1.8423,1.8446,1.8471,1.8494,1.854,1.8553,1.8555,1.862,1.8646,1.8687,1.8691,1.8706,1.8714,1.8711,1.8732,1.8734,1.8735,1.8742,1.8744,1.8717,1.8717,1.8717,1.8717,0,1.8337,1.8366,1.8382,1.8425,1.8447,1.8474,1.8505,1.8524,1.8539,1.8561,1.8597,1.8629,1.8666,1.8677,1.8692,1.8719,1.8719,1.8726,1.8729,1.8736,1.8742,1.8745,1.8716,1.8716,1.8716,1.8716,0,0,1.8335,1.8393,1.8398,1.8418,1.8461,1.8484,1.8511,1.8547,1.8563,1.8594,1.8617,1.866,1.8667,1.8689,1.8707,1.8723,1.8736,1.8728,1.8729,1.8728,1.8767,1.8761,1.8764,1.8744,1.8745,1.8745,1.8764,0,1.8351,1.8402,1.8426,1.8466,1.8493,1.8515,1.8539,1.8568,1.8589,1.8615,1.8639,1.8669,1.8675,1.8688,1.8705,1.873,1.8744,1.873,1.8767,1.8768,1.8757,1.8768,1.8762,1.8778,1.8767,1.8767,1.8768,0,1.8377,1.8407,1.8449,1.8489,1.8501,1.8522,1.8557,1.8582,1.8615,1.8629,1.8653,1.8671,1.8701,1.8701,1.8742,1.8731,1.8748,1.8763,1.8764,1.8768,1.8768,1.8772,1.8784,1.8786,1.8772,1.8772,1.8771,0,1.8371,1.8422,1.8454,1.847,1.8517,1.8532,1.8552,1.8585,1.8605,1.8635,1.8648,1.8681,1.8699,1.8725,1.8751,1.8749,1.8789,1.8792,1.8802,1.8801,1.8809,1.8808,1.8824,1.882,1.882,1.882,1.882,0,1.8387,1.8411,1.8452,1.8472,1.85,1.8528,1.8555,1.8577,1.8606,1.863,1.8651,1.8673,1.8706,1.8732,1.8753,1.8784,1.8792,1.8804,1.8809,1.8802,1.8801,1.8814,1.8813,1.8821,1.8821,1.882,1.882,0,1.8385,1.8413,1.8449,1.8491,1.8502,1.8521,1.8556,1.8576,1.8598,1.8628,1.8637,1.8672,1.8703,1.8732,1.8774,1.8788,1.8819,1.8826,1.8808,1.881,1.8819,1.8818,1.8843,1.8847,1.8841,1.8841,1.8841,0,1.8393,1.8413,1.8456,1.8474,1.8493,1.8521,1.8542,1.857,1.859,1.8629,1.8644,1.8677,1.8705,1.8755,1.8784,1.8816,1.8824,1.883,1.8829,1.8821,1.8824,1.8822,1.8824,1.883,1.883,1.883,1.883,0,1.8404,1.8417,1.8445,1.8478,1.8502,1.8529,1.8558,1.8571,1.8604,1.8626,1.8659,1.868,1.8723,1.8756,1.8791,1.8812,1.8826,1.883,1.8834,1.8827,1.8816,1.8822,1.8807,1.8829,1.8829,1.883,1.883,1.883,1.8407,1.8425,1.8459,1.849,1.8514,1.8539,1.856,1.8584,1.8612,1.8649,1.8664,1.8697,1.873,1.8779,1.8799,1.8826,1.8828,1.8834,1.8836,1.8837,1.8835,1.8812,1.8832,1.8832,1.8832,1.8832,1.8832,0,1.8419,1.8442,1.847,1.8508,1.8532,1.8544,1.8575,1.8595,1.8624,1.8652,1.868,1.8717,1.8748,1.878,1.8813,1.8828,1.8835,1.8836,1.8835,1.8839,1.8831,1.8824,1.8829,1.8829,1.8829,1.8829,1.8829,1.8829,1.8428,1.8459,1.8476,1.8519,1.8542,1.8574,1.8591,1.8615,1.8638,1.8679,1.8705,1.8726,1.8755,1.8791,1.882,1.8829,1.884,1.8838,1.8849,1.884,1.884,1.884,1.8834,1.8841,1.8841,1.8855,1.8855,1.8855]},{"header":{"parameterUnit":"m.s-1","parameterCategory":1,"la1":30.2991,"la2":30.254,"lo1":-89.0895,"lo2":-89.0444,"dy":0.0017,"dx":0.0017,"nx":28,"ny":28,"refTime":"2024-07-21T09:00:00:Z","depth":0,"parameterNumber":3,"parameterNumberName":"V-component_of_WINDS"},"data":[0,0,0,0,0,0,0,0,0,0,0,0,0,0,0,0,0,0,0,0,0,0,0,0,0,0,0,0,0,0,0,0,0,0,0,0,0,0,0,0,0,0,0,0,0,0,0,0,0,0,0,0,0,0,0,0,0,0,4.4872,4.4872,0,4.4886,4.4886,4.4887,4.4888,4.4888,4.4888,4.4888,4.4901,4.4901,4.4901,0,0,0,0,0,0,0,0,0,0,0,0,0,4.4844,4.4845,4.4872,4.4872,4.4872,4.4886,4.4886,4.4887,4.4888,4.4888,4.4888,4.4888,4.49,4.4901,4.4901,0,0,0,0,0,0,0,0,0,0,0,0,0,4.4857,4.4845,4.4872,4.4875,4.4875,4.4886,4.4886,4.4887,4.4888,4.4888,4.4888,4.4888,4.49,4.4901,4.4902,4.491,0,0,4.4904,4.4904,0,0,0,0,0,0,0,0,4.4856,4.4858,4.4874,4.4875,4.4875,4.4885,4.4881,4.4894,4.4888,4.4883,4.4888,4.4888,4.4896,4.4897,4.49,4.4911,4.4911,4.4904,4.4904,4.4905,4.4905,0,0,0,0,0,0,0,4.4855,4.4857,4.4878,4.4875,4.4875,4.4875,4.4876,4.4884,4.489,4.4884,4.4884,4.4886,4.4896,4.4899,4.49,4.4911,4.4904,4.4904,4.4905,4.4905,4.4929,4.4929,0,0,0,0,0,0,4.4854,4.4857,4.4877,4.4878,4.4865,4.4875,4.4877,4.4882,4.489,4.4891,4.4886,4.4886,4.4898,4.4899,4.49,4.491,4.4904,4.4905,4.4906,4.4929,4.4929,4.4929,0,0,0,0,0,0,4.4854,4.4856,4.4877,4.4867,4.487,4.4876,4.4882,4.4883,4.4886,4.4892,4.4893,4.4888,4.4898,4.4899,4.4908,4.4911,4.4905,4.4906,4.4929,4.4929,4.4929,4.493,0,0,0,0,0,0,4.4853,4.4856,4.486,4.4868,4.4871,4.4884,4.4882,4.4883,4.4887,4.4887,4.4894,4.4895,4.4898,4.4906,4.4908,4.4912,4.4907,4.4928,4.4929,4.4929,4.493,4.4931,4.4931,0,0,0,0,0,4.4852,4.4859,4.486,4.4862,4.4876,4.4884,4.4886,4.4889,4.4888,4.4891,4.4895,4.4895,4.491,4.4907,4.4909,4.4913,4.4928,4.4929,4.4929,4.493,4.4931,4.4931,0,0,0,0,0,0,4.4851,4.486,4.4861,4.4872,4.4877,4.4885,4.4889,4.489,4.4896,4.4896,4.4899,4.49,4.4908,4.4911,4.4908,4.4921,4.4919,4.492,4.4919,4.492,4.492,4.4919,4.4907,0,0,0,0,0,4.4852,4.4859,4.4867,4.4875,4.4878,4.4883,4.4887,4.4889,4.4895,4.4897,4.4902,4.4907,4.4912,4.4916,4.4922,4.4931,4.4932,4.4934,4.4935,4.4935,4.4936,4.494,4.4941,4.4931,4.4931,4.4931,0,0,4.4854,4.486,4.4865,4.4875,4.488,4.4886,4.4885,4.4892,4.4897,4.4898,4.4906,4.4909,4.4915,4.4923,4.4927,4.4926,4.4939,4.4936,4.4936,4.4936,4.494,4.4941,4.4942,4.4931,4.4931,4.4931,0,0,4.4862,4.4867,4.4875,4.4879,4.4887,4.489,4.4892,4.4899,4.4901,4.4909,4.491,4.4915,4.4926,4.493,4.4933,4.4941,4.4941,4.4943,4.4946,4.495,4.4951,4.4951,4.4954,4.4954,4.4944,4.4944,4.4944,0,4.4863,4.4874,4.4878,4.4885,4.4889,4.4891,4.4898,4.4902,4.4911,4.4913,4.4912,4.4925,4.4929,4.4938,4.494,4.4942,4.4944,4.4942,4.495,4.4951,4.4952,4.4954,4.4955,4.4944,4.4944,4.4944,4.4944,0,4.4875,4.4883,4.4887,4.4896,4.4901,4.4908,4.4912,4.4916,4.4918,4.4921,4.4928,4.4933,4.494,4.4942,4.4944,4.4951,4.495,4.495,4.4947,4.4953,4.4955,4.4956,4.4944,4.4944,4.4944,4.4944,0,0,4.4883,4.4893,4.4895,4.4899,4.4906,4.4912,4.4918,4.4925,4.4928,4.4934,4.4939,4.4947,4.4947,4.4951,4.4952,4.4956,4.4961,4.4955,4.4955,4.4955,4.4969,4.4969,4.497,4.4962,4.4962,4.4962,4.4968,0,4.489,4.4903,4.4906,4.4917,4.4923,4.4924,4.493,4.4935,4.4938,4.4943,4.4946,4.4952,4.4951,4.4953,4.4957,4.496,4.4964,4.496,4.4966,4.4966,4.4964,4.4971,4.4972,4.4977,4.4969,4.4969,4.497,0,4.4901,4.4907,4.4918,4.4925,4.4928,4.4933,4.4939,4.4944,4.4949,4.4951,4.4955,4.4957,4.4963,4.496,4.4968,4.4965,4.4968,4.497,4.497,4.497,4.4968,4.4971,4.498,4.498,4.4971,4.4971,4.4971,0,4.4905,4.4916,4.4924,4.4927,4.4935,4.4938,4.4941,4.4947,4.495,4.4956,4.4958,4.4964,4.4967,4.4971,4.4973,4.4971,4.4981,4.4979,4.4982,4.4982,4.4984,4.4983,4.4992,4.4986,4.4986,4.4986,4.4986,0,4.4913,4.4919,4.4925,4.493,4.4937,4.494,4.4947,4.495,4.4955,4.496,4.4961,4.4966,4.4969,4.4974,4.4976,4.4982,4.4983,4.4984,4.4985,4.4984,4.4984,4.4986,4.4985,4.4986,4.4986,4.4986,4.4986,0,4.4918,4.4922,4.4931,4.4938,4.4939,4.4944,4.495,4.4954,4.4957,4.4963,4.4965,4.4969,4.4975,4.4978,4.4984,4.4986,4.4992,4.4993,4.4991,4.4991,4.4993,4.4993,4.5003,4.5004,4.4998,4.4998,4.4998,0,4.4922,4.4927,4.4935,4.4938,4.4942,4.4948,4.4952,4.4955,4.4959,4.4965,4.4969,4.4974,4.4979,4.4987,4.4991,4.4996,4.4996,4.4999,4.4997,4.4996,4.4996,4.4995,4.4995,4.5,4.5,4.5,4.5,0,4.493,4.4932,4.4938,4.4944,4.4949,4.4954,4.4959,4.4961,4.4966,4.497,4.4975,4.4979,4.4986,4.4991,4.4997,4.4999,4.5,4.5001,4.5001,4.5,4.4999,4.4999,4.4991,4.5,4.5,4.5,4.5,4.5,4.4934,4.4939,4.4945,4.4951,4.4955,4.496,4.4964,4.4967,4.4972,4.4979,4.498,4.4986,4.4991,4.4998,4.5001,4.5005,4.5005,4.5006,4.5006,4.5007,4.5006,4.4999,4.5006,4.5006,4.5006,4.5006,4.5006,0,4.4941,4.4945,4.4951,4.4958,4.4963,4.4964,4.4969,4.4973,4.4978,4.4983,4.4987,4.4994,4.4999,4.5003,4.5008,4.501,4.5011,4.5012,4.5011,4.5012,4.5007,4.5006,4.5011,4.5011,4.5011,4.5011,4.5011,4.5011,4.4946,4.4953,4.4955,4.4964,4.4968,4.4974,4.4977,4.4981,4.4985,4.4992,4.4996,4.4999,4.5003,4.5009,4.5013,4.5014,4.5015,4.5016,4.5017,4.5013,4.5012,4.5012,4.501,4.5017,4.5017,4.5021,4.5021,4.5021]}]]